Hourly Data Report for October 12, 2019

All times are specified in Local Standard Time (LST). Add 1 hour to adjust for Daylight Saving Time where and when it is observed.

WOODSTOCK NEWBRIDGE
NEW BRUNSWICK
Current Station Operator: ECCC - MSC

46°09'08.000" N
67°32'34.000" W
154.00 m
8105603
71606
EWD

Download Data

Hourly Data (October 2019)
Hourly Data Report for October 12, 2019
TIME Temp Definition
°C
Dew Point Definition
°C
Rel Hum Definition
%
Wind Dir Definition
10's deg

Wind Spd Definition
km/h
Visibility Definition
km
Stn Press Definition
kPa
Hmdx Definition


Wind Chill Definition


Weather Definition


00:00 10.2 5.8 74 7 9   100.71     LegendNANA
01:00 9.9 6.1 77 4 6   100.61     LegendNANA
02:00 10.2 5.5 73 5 12   100.52     LegendNANA
03:00 10.4 5.1 69 6 12   100.45     LegendNANA
04:00 9.5 6.1 79 7 14   100.40     LegendNANA
05:00 9.0 6.7 86 6 10   100.35     LegendNANA
06:00 8.9 6.6 85 6 8   100.25     LegendNANA
07:00 9.1 6.9 86 6 12   100.21     LegendNANA
08:00 9.5 7.6 88 6 9   100.16     LegendNANA
09:00 10.1 7.6 85 5 10   100.14     LegendNANA
10:00 10.6 8.3 86 5 6   100.11     LegendNANA
11:00 10.8 8.4 85 5 8   100.06     LegendNANA
12:00 11.2 8.7 85 5 6   99.96     LegendNANA
13:00 12.1 8.6 79 5 13   99.84     LegendNANA
14:00 12.5 8.4 76 5 11   99.79     LegendNANA
15:00 12.2 8.4 78 3 11   99.76     LegendNANA
16:00 11.9 8.6 80 4 11   99.71     LegendNANA
17:00 11.6 8.1 79 4 9   99.69     LegendNANA
18:00 11.0 7.8 81 3 10   99.69     LegendNANA
19:00 10.6 7.6 82 3 5   99.68     LegendNANA
20:00 10.1 7.6 85 2 6   99.64     LegendNANA
21:00 9.8 7.3 85 1 2   99.64     LegendNANA
22:00 9.6 7.2 85 3 5   99.64     LegendNANA
23:00 9.3 7.1 86 3 1   99.61     LegendNANA

Notes on Data Quality.

Legend

  • E = Estimated
  • M = Missing
  • NA = Not Available
Date modified: